Time,TemperatureF,DewpointF,PressureIn,WindDirection,WindDirectionDegrees,WindSpeedMPH,WindSpeedGustMPH,Humidity,HourlyPrecipIn,Conditions,Clouds,dailyrainin,SoftwareType,DateUTC
2013-02-24 00:02:00,43.8,40.2,30.01,NW,315,0.0,0.0,87,0.00,,,0.00,WUHU216HW,2013-02-24 05:02:00,
2013-02-24 00:07:00,43.5,39.9,30.00,NW,315,0.0,0.0,87,0.00,,,0.00,WUHU216HW,2013-02-24 05:07:00,
2013-02-24 00:12:00,43.5,39.9,30.01,NW,315,0.0,0.0,87,0.00,,,0.00,WUHU216HW,2013-02-24 05:12:00,
2013-02-24 00:17:00,43.3,39.7,30.01,NW,315,0.0,0.0,87,0.00,,,0.00,WUHU216HW,2013-02-24 05:17:00,
2013-02-24 00:22:00,43.1,39.5,30.01,NW,315,0.0,0.0,87,0.00,,,0.00,WUHU216HW,2013-02-24 05:22:00,
2013-02-24 00:27:00,42.9,39.3,30.01,NW,315,0.0,0.0,87,0.00,,,0.00,WUHU216HW,2013-02-24 05:27:00,
2013-02-24 00:32:00,42.9,39.3,30.01,NW,315,0.0,0.0,87,0.00,,,0.00,WUHU216HW,2013-02-24 05:32:00,
2013-02-24 00:37:00,42.6,39.0,30.01,NW,315,0.0,0.0,87,0.00,,,0.00,WUHU216HW,2013-02-24 05:37:00,
2013-02-24 00:42:00,42.4,38.8,30.01,NW,315,0.0,0.0,87,0.00,,,0.00,WUHU216HW,2013-02-24 05:42:00,
2013-02-24 00:47:00,42.2,38.6,30.01,NW,315,0.0,0.0,87,0.00,,,0.00,WUHU216HW,2013-02-24 05:47:00,
2013-02-24 00:52:00,42.0,38.4,30.01,NW,315,0.0,0.0,87,0.00,,,0.00,WUHU216HW,2013-02-24 05:52:00,
2013-02-24 00:57:00,41.7,38.1,30.01,NNW,338,0.0,0.0,87,0.00,,,0.00,WUHU216HW,2013-02-24 05:57:00,
2013-02-24 01:02:00,41.5,37.9,30.01,NNW,338,0.0,0.0,87,0.00,,,0.00,WUHU216HW,2013-02-24 06:02:00,
2013-02-24 01:07:00,41.5,37.9,30.01,NNW,338,0.0,0.0,87,0.00,,,0.00,WUHU216HW,2013-02-24 06:07:00,
2013-02-24 01:12:00,41.3,37.7,30.01,NNW,338,0.0,0.0,87,0.00,,,0.00,WUHU216HW,2013-02-24 06:12:00,
2013-02-24 01:17:00,41.1,37.5,30.00,NNW,338,0.0,0.0,87,0.00,,,0.00,WUHU216HW,2013-02-24 06:17:00,
2013-02-24 01:22:00,41.1,37.5,30.00,NNW,338,0.0,0.0,87,0.00,,,0.00,WUHU216HW,2013-02-24 06:22:00,
2013-02-24 01:27:00,41.0,37.3,30.01,NNW,338,0.0,0.0,87,0.00,,,0.00,WUHU216HW,2013-02-24 06:27:00,
2013-02-24 01:32:00,40.8,37.2,30.01,NNW,338,0.0,0.0,87,0.00,,,0.00,WUHU216HW,2013-02-24 06:32:00,
2013-02-24 01:37:00,40.8,37.2,30.01,NNW,338,0.0,0.0,87,0.00,,,0.00,WUHU216HW,2013-02-24 06:37:00,
2013-02-24 01:42:00,40.6,37.0,30.02,NNW,338,0.0,0.0,87,0.00,,,0.00,WUHU216HW,2013-02-24 06:42:00,
2013-02-24 01:47:00,40.4,36.8,30.02,NNW,338,0.0,0.0,87,0.00,,,0.00,WUHU216HW,2013-02-24 06:47:00,
2013-02-24 01:52:00,40.2,36.6,30.03,NNW,338,0.0,0.0,87,0.00,,,0.00,WUHU216HW,2013-02-24 06:52:00,
2013-02-24 01:57:00,40.1,36.5,30.02,NNW,338,0.0,0.0,87,0.00,,,0.00,WUHU216HW,2013-02-24 06:57:00,
2013-02-24 02:02:00,40.1,36.8,30.02,NNW,338,0.0,0.0,88,0.00,,,0.00,WUHU216HW,2013-02-24 07:02:00,
2013-02-24 02:07:00,40.1,36.8,30.02,NNW,338,0.0,0.0,88,0.00,,,0.00,WUHU216HW,2013-02-24 07:07:00,
2013-02-24 02:12:00,40.1,36.8,30.02,NNW,338,0.0,0.0,88,0.00,,,0.00,WUHU216HW,2013-02-24 07:12:00,
2013-02-24 02:17:00,39.9,36.6,30.02,NNW,338,0.0,0.0,88,0.00,,,0.00,WUHU216HW,2013-02-24 07:17:00,
2013-02-24 02:22:00,40.1,36.8,30.01,NNW,338,0.0,0.0,88,0.00,,,0.00,WUHU216HW,2013-02-24 07:22:00,
2013-02-24 02:27:00,40.1,36.8,30.02,NNW,338,0.0,0.0,88,0.00,,,0.00,WUHU216HW,2013-02-24 07:27:00,
2013-02-24 02:32:00,40.1,36.8,30.01,NE,45,0.0,0.0,88,0.00,,,0.00,WUHU216HW,2013-02-24 07:32:00,
2013-02-24 02:37:00,40.2,36.9,30.01,NE,45,0.0,0.0,88,0.00,,,0.00,WUHU216HW,2013-02-24 07:37:00,
2013-02-24 02:42:00,40.2,36.9,30.01,NE,45,0.0,0.0,88,0.00,,,0.00,WUHU216HW,2013-02-24 07:42:00,
2013-02-24 02:47:00,40.2,36.9,30.01,NE,45,0.0,0.0,88,0.00,,,0.00,WUHU216HW,2013-02-24 07:47:00,
2013-02-24 02:52:00,40.1,36.8,30.01,NE,45,0.0,0.0,88,0.00,,,0.00,WUHU216HW,2013-02-24 07:52:00,
2013-02-24 02:57:00,40.1,36.8,30.01,NE,45,0.0,0.0,88,0.00,,,0.00,WUHU216HW,2013-02-24 07:57:00,
2013-02-24 03:02:00,40.1,36.8,30.01,NNW,338,0.0,0.0,88,0.00,,,0.00,WUHU216HW,2013-02-24 08:02:00,
2013-02-24 03:07:00,40.1,36.8,30.01,NNW,338,0.0,0.0,88,0.00,,,0.00,WUHU216HW,2013-02-24 08:07:00,
2013-02-24 03:12:00,40.1,36.8,30.02,NNW,338,0.0,0.0,88,0.00,,,0.00,WUHU216HW,2013-02-24 08:12:00,
2013-02-24 03:17:00,40.1,36.8,30.02,NNW,338,0.0,0.0,88,0.00,,,0.00,WUHU216HW,2013-02-24 08:17:00,
2013-02-24 03:22:00,39.9,36.6,30.02,West,270,0.0,0.0,88,0.00,,,0.00,WUHU216HW,2013-02-24 08:22:00,
2013-02-24 03:27:00,39.9,36.6,30.02,West,270,0.0,0.0,88,0.00,,,0.00,WUHU216HW,2013-02-24 08:27:00,
2013-02-24 03:32:00,39.9,36.6,30.02,West,270,0.0,0.0,88,0.00,,,0.00,WUHU216HW,2013-02-24 08:32:00,
2013-02-24 03:37:00,39.7,36.4,30.02,NNW,338,0.0,0.0,88,0.00,,,0.00,WUHU216HW,2013-02-24 08:37:00,
2013-02-24 03:42:00,39.5,36.2,30.02,West,270,0.0,0.0,88,0.00,,,0.00,WUHU216HW,2013-02-24 08:42:00,
2013-02-24 03:47:00,39.5,36.2,30.02,West,270,0.0,0.0,88,0.00,,,0.00,WUHU216HW,2013-02-24 08:47:00,
2013-02-24 03:52:00,39.3,36.0,30.02,West,270,0.0,0.0,88,0.00,,,0.00,WUHU216HW,2013-02-24 08:52:00,
2013-02-24 03:57:00,39.3,36.0,30.02,West,270,0.0,0.0,88,0.00,,,0.00,WUHU216HW,2013-02-24 08:57:00,
2013-02-24 04:02:00,39.3,36.0,30.02,West,270,0.0,0.0,88,0.00,,,0.00,WUHU216HW,2013-02-24 09:02:00,
2013-02-24 04:07:00,39.0,35.7,30.02,NW,315,0.0,0.0,88,0.00,,,0.00,WUHU216HW,2013-02-24 09:07:00,
2013-02-24 04:12:00,39.0,35.7,30.03,NW,315,0.0,0.0,88,0.00,,,0.00,WUHU216HW,2013-02-24 09:12:00,
2013-02-24 04:17:00,39.0,35.7,30.03,NW,315,0.0,0.0,88,0.00,,,0.00,WUHU216HW,2013-02-24 09:17:00,
2013-02-24 04:22:00,38.8,35.5,30.02,NW,315,0.0,0.0,88,0.00,,,0.00,WUHU216HW,2013-02-24 09:22:00,
2013-02-24 04:27:00,38.8,35.5,30.02,WNW,293,0.0,0.0,88,0.00,,,0.00,WUHU216HW,2013-02-24 09:27:00,
2013-02-24 04:32:00,38.4,35.2,30.03,WNW,293,0.0,0.0,88,0.00,,,0.00,WUHU216HW,2013-02-24 09:32:00,
2013-02-24 04:37:00,38.4,35.2,30.03,NNW,338,0.0,0.0,88,0.00,,,0.00,WUHU216HW,2013-02-24 09:37:00,
2013-02-24 04:42:00,38.3,35.0,30.03,NNW,338,0.0,0.0,88,0.00,,,0.00,WUHU216HW,2013-02-24 09:42:00,
2013-02-24 04:47:00,38.3,35.0,30.03,NNW,338,0.0,0.0,88,0.00,,,0.00,WUHU216HW,2013-02-24 09:47:00,
2013-02-24 04:52:00,38.1,34.8,30.03,NNW,338,0.0,0.0,88,0.00,,,0.00,WUHU216HW,2013-02-24 09:52:00,
2013-02-24 04:57:00,37.9,34.6,30.04,NNW,338,0.0,0.0,88,0.00,,,0.00,WUHU216HW,2013-02-24 09:57:00,
2013-02-24 05:02:00,37.9,34.6,30.04,NE,45,0.0,0.0,88,0.00,,,0.00,WUHU216HW,2013-02-24 10:02:00,
2013-02-24 05:07:00,37.7,34.4,30.04,NE,45,0.0,0.0,88,0.00,,,0.00,WUHU216HW,2013-02-24 10:07:00,
2013-02-24 05:12:00,37.5,34.3,30.04,WNW,293,0.0,0.0,88,0.00,,,0.00,WUHU216HW,2013-02-24 10:12:00,
2013-02-24 05:17:00,37.5,34.3,30.04,WNW,293,0.0,0.0,88,0.00,,,0.00,WUHU216HW,2013-02-24 10:17:00,
2013-02-24 05:22:00,37.4,34.1,30.05,WNW,293,0.0,0.0,88,0.00,,,0.00,WUHU216HW,2013-02-24 10:22:00,
2013-02-24 05:27:00,37.2,33.9,30.05,NW,315,0.0,0.0,88,0.00,,,0.00,WUHU216HW,2013-02-24 10:27:00,
2013-02-24 05:32:00,37.2,33.9,30.05,NW,315,0.0,0.0,88,0.00,,,0.00,WUHU216HW,2013-02-24 10:32:00,
2013-02-24 05:37:00,37.2,33.9,30.05,NW,315,0.0,0.0,88,0.00,,,0.00,WUHU216HW,2013-02-24 10:37:00,
2013-02-24 05:42:00,37.0,33.7,30.06,NW,315,0.0,0.0,88,0.00,,,0.00,WUHU216HW,2013-02-24 10:42:00,
2013-02-24 05:47:00,37.0,33.4,30.06,NW,315,0.0,0.0,87,0.00,,,0.00,WUHU216HW,2013-02-24 10:47:00,
2013-02-24 05:52:00,36.6,33.1,30.06,NW,315,0.0,0.0,87,0.00,,,0.00,WUHU216HW,2013-02-24 10:52:00,
2013-02-24 05:57:00,36.6,33.1,30.06,NW,315,0.0,0.0,87,0.00,,,0.00,WUHU216HW,2013-02-24 10:57:00,
2013-02-24 06:02:00,36.5,32.9,30.06,NW,315,0.0,0.0,87,0.00,,,0.00,WUHU216HW,2013-02-24 11:02:00,
2013-02-24 06:07:00,36.3,32.7,30.06,NW,315,0.0,0.0,87,0.00,,,0.00,WUHU216HW,2013-02-24 11:07:00,
2013-02-24 06:12:00,36.1,32.5,30.07,NW,315,0.0,0.0,87,0.00,,,0.00,WUHU216HW,2013-02-24 11:12:00,
2013-02-24 06:17:00,36.1,32.5,30.07,NW,315,0.0,0.0,87,0.00,,,0.00,WUHU216HW,2013-02-24 11:17:00,
2013-02-24 06:22:00,35.9,32.3,30.07,NW,315,0.0,0.0,87,0.00,,,0.00,WUHU216HW,2013-02-24 11:22:00,
2013-02-24 06:27:00,35.7,32.2,30.08,NW,315,0.0,0.0,87,0.00,,,0.00,WUHU216HW,2013-02-24 11:27:00,
2013-02-24 06:32:00,35.7,32.2,30.08,NW,315,0.0,0.0,87,0.00,,,0.00,WUHU216HW,2013-02-24 11:32:00,
2013-02-24 06:37:00,35.4,31.8,30.08,NW,315,0.0,0.0,87,0.00,,,0.00,WUHU216HW,2013-02-24 11:37:00,
2013-02-24 06:42:00,35.4,31.8,30.08,NW,315,0.0,0.0,87,0.00,,,0.00,WUHU216HW,2013-02-24 11:42:00,
2013-02-24 06:47:00,35.4,31.8,30.08,North,0,0.0,0.0,87,0.00,,,0.00,WUHU216HW,2013-02-24 11:47:00,
2013-02-24 06:52:00,35.4,32.1,30.08,West,270,0.0,0.0,88,0.00,,,0.00,WUHU216HW,2013-02-24 11:52:00,
2013-02-24 06:57:00,35.4,32.1,30.09,WSW,248,0.0,0.0,88,0.00,,,0.00,WUHU216HW,2013-02-24 11:57:00,
2013-02-24 07:02:00,35.4,32.1,30.09,WSW,248,0.0,0.0,88,0.00,,,0.00,WUHU216HW,2013-02-24 12:02:00,
2013-02-24 07:07:00,35.4,32.1,30.09,West,270,0.0,0.0,88,0.00,,,0.00,WUHU216HW,2013-02-24 12:07:00,
2013-02-24 07:12:00,35.4,32.1,30.09,NNW,338,0.0,0.0,88,0.00,,,0.00,WUHU216HW,2013-02-24 12:12:00,
2013-02-24 07:17:00,35.4,32.1,30.09,NNW,338,0.0,0.0,88,0.00,,,0.00,WUHU216HW,2013-02-24 12:17:00,
2013-02-24 07:22:00,35.2,31.9,30.10,NNW,338,0.0,0.0,88,0.00,,,0.00,WUHU216HW,2013-02-24 12:22:00,
2013-02-24 07:27:00,35.2,31.9,30.09,NNW,338,0.0,0.0,88,0.00,,,0.00,WUHU216HW,2013-02-24 12:27:00,
2013-02-24 07:32:00,35.2,31.9,30.10,NNW,338,0.0,0.0,88,0.00,,,0.00,WUHU216HW,2013-02-24 12:32:00,
2013-02-24 07:38:00,35.2,31.9,30.11,NNW,338,0.0,0.0,88,0.00,,,0.00,WUHU216HW,2013-02-24 12:38:00,
2013-02-24 07:43:00,35.2,31.9,30.11,NW,315,0.0,0.0,88,0.00,,,0.00,WUHU216HW,2013-02-24 12:43:00,
2013-02-24 07:48:00,35.2,31.6,30.11,NW,315,0.0,0.0,87,0.00,,,0.00,WUHU216HW,2013-02-24 12:48:00,
2013-02-24 07:53:00,35.2,31.6,30.11,NW,315,0.0,0.0,87,0.00,,,0.00,WUHU216HW,2013-02-24 12:53:00,
2013-02-24 07:58:00,35.2,31.6,30.11,NW,315,0.0,0.0,87,0.00,,,0.00,WUHU216HW,2013-02-24 12:58:00,
2013-02-24 08:03:00,35.2,31.6,30.12,NW,315,0.0,0.0,87,0.00,,,0.00,WUHU216HW,2013-02-24 13:03:00,
2013-02-24 08:08:00,35.4,31.8,30.12,NW,315,0.0,0.0,87,0.00,,,0.00,WUHU216HW,2013-02-24 13:08:00,
2013-02-24 08:13:00,35.4,31.8,30.12,NW,315,0.0,0.0,87,0.00,,,0.00,WUHU216HW,2013-02-24 13:13:00,
2013-02-24 08:18:00,35.4,31.5,30.12,NW,315,0.0,0.0,86,0.00,,,0.00,WUHU216HW,2013-02-24 13:18:00,
2013-02-24 08:23:00,35.7,31.9,30.12,NNW,338,0.0,0.0,86,0.00,,,0.00,WUHU216HW,2013-02-24 13:23:00,
2013-02-24 08:28:00,35.7,31.9,30.13,NNW,338,0.0,0.0,86,0.00,,,0.00,WUHU216HW,2013-02-24 13:28:00,
2013-02-24 08:33:00,35.9,32.1,30.12,NNW,338,0.0,0.0,86,0.00,,,0.00,WUHU216HW,2013-02-24 13:33:00,
2013-02-24 08:38:00,36.1,32.0,30.13,WNW,293,0.0,0.0,85,0.00,,,0.00,WUHU216HW,2013-02-24 13:38:00,
2013-02-24 08:43:00,36.3,31.8,30.13,NW,315,0.0,0.0,84,0.00,,,0.00,WUHU216HW,2013-02-24 13:43:00,
2013-02-24 08:48:00,36.6,32.2,30.14,NW,315,0.0,0.0,84,0.00,,,0.00,WUHU216HW,2013-02-24 13:48:00,
2013-02-24 08:53:00,37.0,32.3,30.14,NNW,338,0.0,0.0,83,0.00,,,0.00,WUHU216HW,2013-02-24 13:53:00,
2013-02-24 08:58:00,37.2,32.5,30.13,NNW,338,0.0,0.0,83,0.00,,,0.00,WUHU216HW,2013-02-24 13:58:00,
2013-02-24 09:03:00,37.7,32.1,30.14,NNW,338,0.0,5.5,80,0.00,,,0.00,WUHU216HW,2013-02-24 14:03:00,
2013-02-24 09:08:00,37.9,32.3,30.14,NE,45,0.0,5.5,80,0.00,,,0.00,WUHU216HW,2013-02-24 14:08:00,
2013-02-24 09:13:00,38.4,32.3,30.13,North,0,0.0,0.0,79,0.00,,,0.00,WUHU216HW,2013-02-24 14:13:00,
2013-02-24 09:18:00,38.4,32.5,30.13,NNW,338,0.0,0.0,79,0.00,,,0.00,WUHU216HW,2013-02-24 14:18:00,
2013-02-24 09:23:00,39.0,32.0,30.13,NNW,338,0.0,0.0,76,0.00,,,0.00,WUHU216HW,2013-02-24 14:23:00,
2013-02-24 09:28:00,39.3,32.4,30.13,WNW,293,0.0,0.0,76,0.00,,,0.00,WUHU216HW,2013-02-24 14:28:00,
2013-02-24 09:33:00,39.7,32.7,30.13,NNW,338,0.0,1.3,76,0.00,,,0.00,WUHU216HW,2013-02-24 14:33:00,
2013-02-24 09:38:00,39.9,32.5,30.13,NW,315,0.0,1.3,75,0.00,,,0.00,WUHU216HW,2013-02-24 14:38:00,
2013-02-24 09:43:00,40.2,32.9,30.13,WNW,293,0.0,0.0,74,0.00,,,0.00,WUHU216HW,2013-02-24 14:43:00,
2013-02-24 09:48:00,40.8,32.7,30.13,NNW,338,0.0,0.0,73,0.00,,,0.00,WUHU216HW,2013-02-24 14:48:00,
2013-02-24 09:53:00,41.1,32.8,30.13,NW,315,0.0,8.9,72,0.00,,,0.00,WUHU216HW,2013-02-24 14:53:00,
2013-02-24 09:58:00,41.3,33.0,30.13,NE,45,0.0,8.9,72,0.00,,,0.00,WUHU216HW,2013-02-24 14:58:00,
2013-02-24 10:03:00,41.7,33.0,30.13,NNW,338,2.6,2.6,71,0.00,,,0.00,WUHU216HW,2013-02-24 15:03:00,
2013-02-24 10:08:00,42.0,33.4,30.13,NW,315,0.0,2.6,71,0.00,,,0.00,WUHU216HW,2013-02-24 15:08:00,
2013-02-24 10:13:00,42.4,33.5,30.14,WNW,293,0.0,2.6,71,0.00,,,0.00,WUHU216HW,2013-02-24 15:13:00,
2013-02-24 10:18:00,42.6,33.9,30.14,NNE,23,0.0,0.0,71,0.00,,,0.00,WUHU216HW,2013-02-24 15:18:00,
2013-02-24 10:23:00,42.9,33.5,30.13,NNW,338,0.0,1.5,69,0.00,,,0.00,WUHU216HW,2013-02-24 15:23:00,
2013-02-24 10:28:00,43.1,33.8,30.13,NNW,338,5.3,5.3,69,0.00,,,0.00,WUHU216HW,2013-02-24 15:28:00,
2013-02-24 10:33:00,43.3,33.4,30.13,North,0,0.0,5.3,68,0.00,,,0.00,WUHU216HW,2013-02-24 15:33:00,
2013-02-24 10:38:00,43.7,33.8,30.13,NNE,23,0.0,0.0,68,0.00,,,0.00,WUHU216HW,2013-02-24 15:38:00,
2013-02-24 10:43:00,44.0,33.7,30.13,NNW,338,0.0,0.0,67,0.00,,,0.00,WUHU216HW,2013-02-24 15:43:00,
2013-02-24 10:48:00,44.6,33.9,30.14,NW,315,0.0,0.0,66,0.00,,,0.00,WUHU216HW,2013-02-24 15:48:00,
2013-02-24 10:53:00,44.9,34.2,30.13,NE,45,0.0,0.0,66,0.00,,,0.00,WUHU216HW,2013-02-24 15:53:00,
2013-02-24 10:58:00,45.1,34.0,30.14,NNW,338,3.8,3.8,65,0.00,,,0.00,WUHU216HW,2013-02-24 15:58:00,
2013-02-24 11:03:00,45.6,34.5,30.14,NNW,338,0.0,3.8,65,0.00,,,0.00,WUHU216HW,2013-02-24 16:03:00,
2013-02-24 11:08:00,46.0,34.5,30.13,ENE,68,0.0,3.8,64,0.00,,,0.00,WUHU216HW,2013-02-24 16:08:00,
2013-02-24 11:13:00,46.2,34.2,30.13,NW,315,0.0,0.0,63,0.00,,,0.00,WUHU216HW,2013-02-24 16:13:00,
2013-02-24 11:18:00,46.5,33.4,30.13,WNW,293,0.0,0.0,60,0.00,,,0.00,WUHU216HW,2013-02-24 16:18:00,
2013-02-24 11:23:00,46.9,32.8,30.13,West,270,0.0,5.8,58,0.00,,,0.00,WUHU216HW,2013-02-24 16:23:00,
2013-02-24 11:28:00,47.1,33.0,30.13,NW,315,0.0,5.8,58,0.00,,,0.00,WUHU216HW,2013-02-24 16:28:00,
2013-02-24 11:33:00,47.1,33.0,30.13,NE,45,0.0,0.0,58,0.00,,,0.00,WUHU216HW,2013-02-24 16:33:00,
2013-02-24 11:38:00,47.6,33.5,30.13,NNW,338,0.0,0.0,58,0.00,,,0.00,WUHU216HW,2013-02-24 16:38:00,
2013-02-24 11:43:00,47.8,33.7,30.13,NE,45,0.0,0.0,58,0.00,,,0.00,WUHU216HW,2013-02-24 16:43:00,
2013-02-24 11:48:00,48.0,33.4,30.13,NW,315,0.0,0.0,57,0.00,,,0.00,WUHU216HW,2013-02-24 16:48:00,
2013-02-24 11:53:00,48.5,33.9,30.13,NW,315,0.0,0.0,57,0.00,,,0.00,WUHU216HW,2013-02-24 16:53:00,
2013-02-24 11:58:00,48.7,34.6,30.13,NNW,338,0.0,0.0,58,0.00,,,0.00,WUHU216HW,2013-02-24 16:58:00,
2013-02-24 12:03:00,49.1,34.4,30.13,WNW,293,0.0,0.0,57,0.00,,,0.00,WUHU216HW,2013-02-24 17:03:00,
2013-02-24 12:08:00,49.6,34.5,30.13,NW,315,0.0,0.0,56,0.00,,,0.00,WUHU216HW,2013-02-24 17:08:00,
2013-02-24 12:13:00,49.6,34.0,30.13,NW,315,0.0,0.0,55,0.00,,,0.00,WUHU216HW,2013-02-24 17:13:00,
2013-02-24 12:18:00,49.8,34.2,30.13,NW,315,0.0,1.1,55,0.00,,,0.00,WUHU216HW,2013-02-24 17:18:00,
2013-02-24 12:23:00,50.0,33.9,30.13,NW,315,0.0,1.1,54,0.00,,,0.00,WUHU216HW,2013-02-24 17:23:00,
2013-02-24 12:28:00,50.1,33.6,30.13,West,270,3.1,3.1,53,0.00,,,0.00,WUHU216HW,2013-02-24 17:28:00,
2013-02-24 12:33:00,50.3,33.4,30.13,North,0,0.0,3.1,52,0.00,,,0.00,WUHU216HW,2013-02-24 17:33:00,
2013-02-24 12:38:00,50.7,33.7,30.13,NW,315,0.0,3.1,52,0.00,,,0.00,WUHU216HW,2013-02-24 17:38:00,
2013-02-24 12:43:00,50.9,33.8,30.12,ENE,68,0.0,0.0,52,0.00,,,0.00,WUHU216HW,2013-02-24 17:43:00,
2013-02-24 12:48:00,51.0,33.6,30.12,NNW,338,2.9,2.9,51,0.00,,,0.00,WUHU216HW,2013-02-24 17:48:00,
2013-02-24 12:53:00,51.4,33.9,30.12,WSW,248,4.9,4.9,51,0.00,,,0.00,WUHU216HW,2013-02-24 17:53:00,
2013-02-24 12:58:00,51.4,32.3,30.12,NW,315,0.0,4.9,48,0.00,,,0.00,WUHU216HW,2013-02-24 17:58:00,
2013-02-24 13:03:00,51.4,32.3,30.12,NNW,338,0.0,8.2,48,0.00,,,0.00,WUHU216HW,2013-02-24 18:03:00,
2013-02-24 13:08:00,51.2,32.3,30.12,NW,315,2.2,8.2,48,0.00,,,0.00,WUHU216HW,2013-02-24 18:08:00,
2013-02-24 13:13:00,51.4,32.9,30.11,NW,315,0.0,4.4,49,0.00,,,0.00,WUHU216HW,2013-02-24 18:13:00,
2013-02-24 13:18:00,51.6,32.5,30.12,North,0,0.0,4.4,48,0.00,,,0.00,WUHU216HW,2013-02-24 18:18:00,
2013-02-24 13:24:00,51.6,32.5,30.11,West,270,4.2,4.2,48,0.00,,,0.00,WUHU216HW,2013-02-24 18:24:00,
2013-02-24 13:29:00,51.9,32.8,30.11,NNW,338,0.0,4.2,48,0.00,,,0.00,WUHU216HW,2013-02-24 18:29:00,
2013-02-24 13:34:00,51.9,31.7,30.11,NNW,338,0.0,9.6,46,0.00,,,0.00,WUHU216HW,2013-02-24 18:34:00,
2013-02-24 13:39:00,51.8,31.5,30.11,North,0,0.0,9.6,46,0.00,,,0.00,WUHU216HW,2013-02-24 18:39:00,
2013-02-24 13:44:00,51.9,31.7,30.11,North,0,2.9,2.9,46,0.00,,,0.00,WUHU216HW,2013-02-24 18:44:00,
2013-02-24 13:49:00,51.9,31.1,30.11,NNW,338,3.3,3.3,45,0.00,,,0.00,WUHU216HW,2013-02-24 18:49:00,
2013-02-24 13:54:00,51.9,31.1,30.11,NNW,338,0.0,3.3,45,0.00,,,0.00,WUHU216HW,2013-02-24 18:54:00,
2013-02-24 13:59:00,52.1,30.7,30.11,NNW,338,0.0,0.0,44,0.00,,,0.00,WUHU216HW,2013-02-24 18:59:00,
2013-02-24 14:04:00,51.9,29.4,30.11,NW,315,0.0,0.0,42,0.00,,,0.00,WUHU216HW,2013-02-24 19:04:00,
2013-02-24 14:09:00,51.6,30.2,30.11,NNE,23,0.0,0.0,44,0.00,,,0.00,WUHU216HW,2013-02-24 19:09:00,
2013-02-24 14:14:00,51.6,30.2,30.11,NNW,338,0.0,0.0,44,0.00,,,0.00,WUHU216HW,2013-02-24 19:14:00,
2013-02-24 14:19:00,51.6,30.2,30.11,NNW,338,0.0,0.0,44,0.00,,,0.00,WUHU216HW,2013-02-24 19:19:00,
2013-02-24 14:24:00,51.6,30.2,30.10,North,0,0.0,1.7,44,0.00,,,0.00,WUHU216HW,2013-02-24 19:24:00,
2013-02-24 14:29:00,51.6,28.6,30.10,NW,315,0.0,4.9,41,0.00,,,0.00,WUHU216HW,2013-02-24 19:29:00,
2013-02-24 14:34:00,51.6,29.1,30.10,North,0,0.0,4.9,42,0.00,,,0.00,WUHU216HW,2013-02-24 19:34:00,
2013-02-24 14:39:00,51.4,28.4,30.10,NW,315,6.7,6.7,41,0.00,,,0.00,WUHU216HW,2013-02-24 19:39:00,
2013-02-24 14:44:00,51.2,28.2,30.11,NNE,23,0.0,7.8,41,0.00,,,0.00,WUHU216HW,2013-02-24 19:44:00,
2013-02-24 14:49:00,51.2,28.8,30.11,NE,45,0.0,7.8,42,0.00,,,0.00,WUHU216HW,2013-02-24 19:49:00,
2013-02-24 14:54:00,51.2,28.8,30.11,NW,315,3.8,3.8,42,0.00,,,0.00,WUHU216HW,2013-02-24 19:54:00,
2013-02-24 14:59:00,51.2,27.7,30.11,WNW,293,7.3,8.9,40,0.00,,,0.00,WUHU216HW,2013-02-24 19:59:00,
2013-02-24 15:04:00,51.0,27.5,30.11,NNW,338,0.0,8.9,40,0.00,,,0.00,WUHU216HW,2013-02-24 20:04:00,
2013-02-24 15:09:00,51.0,26.8,30.11,NW,315,1.7,8.7,39,0.00,,,0.00,WUHU216HW,2013-02-24 20:09:00,
2013-02-24 15:14:00,50.9,27.4,30.11,NNW,338,6.4,8.7,40,0.00,,,0.00,WUHU216HW,2013-02-24 20:14:00,
2013-02-24 15:19:00,50.9,27.4,30.11,North,0,0.0,6.4,40,0.00,,,0.00,WUHU216HW,2013-02-24 20:19:00,
2013-02-24 15:24:00,50.9,27.4,30.11,WSW,248,3.3,3.3,40,0.00,,,0.00,WUHU216HW,2013-02-24 20:24:00,
2013-02-24 15:29:00,50.9,26.7,30.11,NNW,338,0.0,3.3,39,0.00,,,0.00,WUHU216HW,2013-02-24 20:29:00,
2013-02-24 15:34:00,50.9,26.7,30.11,NNW,338,2.0,4.6,39,0.00,,,0.00,WUHU216HW,2013-02-24 20:34:00,
2013-02-24 15:39:00,50.9,27.9,30.11,NNW,338,7.6,7.6,41,0.00,,,0.00,WUHU216HW,2013-02-24 20:39:00,
2013-02-24 15:44:00,51.0,27.5,30.11,NNW,338,0.0,7.6,40,0.00,,,0.00,WUHU216HW,2013-02-24 20:44:00,
2013-02-24 15:49:00,51.0,26.8,30.11,North,0,0.0,7.6,39,0.00,,,0.00,WUHU216HW,2013-02-24 20:49:00,
2013-02-24 15:54:00,51.0,27.5,30.11,NNW,338,0.0,0.0,40,0.00,,,0.00,WUHU216HW,2013-02-24 20:54:00,
2013-02-24 15:59:00,51.0,26.8,30.11,NNW,338,1.5,4.4,39,0.00,,,0.00,WUHU216HW,2013-02-24 20:59:00,
2013-02-24 16:04:00,50.9,26.7,30.11,NNW,338,0.0,4.4,39,0.00,,,0.00,WUHU216HW,2013-02-24 21:04:00,
2013-02-24 16:09:00,50.9,26.0,30.11,NW,315,4.2,4.2,38,0.00,,,0.00,WUHU216HW,2013-02-24 21:09:00,
2013-02-24 16:14:00,50.7,27.2,30.10,West,270,3.8,4.2,40,0.00,,,0.00,WUHU216HW,2013-02-24 21:14:00,
2013-02-24 16:19:00,50.9,27.9,30.10,North,0,0.0,4.2,41,0.00,,,0.00,WUHU216HW,2013-02-24 21:19:00,
2013-02-24 16:24:00,50.9,27.9,30.11,NNW,338,0.0,2.0,41,0.00,,,0.00,WUHU216HW,2013-02-24 21:24:00,
2013-02-24 16:29:00,51.0,26.8,30.11,NW,315,5.1,6.4,39,0.00,,,0.00,WUHU216HW,2013-02-24 21:29:00,
2013-02-24 16:34:00,50.9,27.9,30.11,NNW,338,0.0,6.4,41,0.00,,,0.00,WUHU216HW,2013-02-24 21:34:00,
2013-02-24 16:39:00,50.7,26.5,30.11,NNW,338,2.2,5.5,39,0.00,,,0.00,WUHU216HW,2013-02-24 21:39:00,
2013-02-24 16:44:00,50.7,27.2,30.11,NNW,338,0.0,5.5,40,0.00,,,0.00,WUHU216HW,2013-02-24 21:44:00,
2013-02-24 16:49:00,50.5,27.6,30.11,NNW,338,0.0,2.2,41,0.00,,,0.00,WUHU216HW,2013-02-24 21:49:00,
2013-02-24 16:54:00,50.3,27.4,30.11,NE,45,0.0,6.7,41,0.00,,,0.00,WUHU216HW,2013-02-24 21:54:00,
2013-02-24 16:59:00,50.1,27.3,30.10,NE,45,2.4,6.7,41,0.00,,,0.00,WUHU216HW,2013-02-24 21:59:00,
2013-02-24 17:04:00,50.1,27.3,30.10,NNW,338,4.0,4.0,41,0.00,,,0.00,WUHU216HW,2013-02-24 22:04:00,
2013-02-24 17:09:00,49.8,27.5,30.10,NW,315,0.0,4.0,42,0.00,,,0.00,WUHU216HW,2013-02-24 22:09:00,
2013-02-24 17:14:00,49.8,27.5,30.10,NNW,338,1.3,5.8,42,0.00,,,0.00,WUHU216HW,2013-02-24 22:14:00,
2013-02-24 17:19:00,49.8,27.5,30.11,North,0,0.0,5.8,42,0.00,,,0.00,WUHU216HW,2013-02-24 22:19:00,
2013-02-24 17:24:00,49.6,27.9,30.11,NE,45,0.0,0.0,43,0.00,,,0.00,WUHU216HW,2013-02-24 22:24:00,
2013-02-24 17:29:00,49.2,27.5,30.11,NW,315,0.0,0.0,43,0.00,,,0.00,WUHU216HW,2013-02-24 22:29:00,
2013-02-24 17:34:00,49.2,27.0,30.11,NNW,338,0.0,0.0,42,0.00,,,0.00,WUHU216HW,2013-02-24 22:34:00,
2013-02-24 17:46:00,48.7,27.0,30.11,NW,315,0.0,0.0,43,0.00,,,0.00,WUHU216HW,2013-02-24 22:46:00,
2013-02-24 17:54:00,48.2,27.1,30.11,West,270,0.0,0.0,44,0.00,,,0.00,WUHU216HW,2013-02-24 22:54:00,
2013-02-24 17:59:00,48.0,26.9,30.11,NW,315,0.0,0.0,44,0.00,,,0.00,WUHU216HW,2013-02-24 22:59:00,
2013-02-24 18:04:00,47.6,26.6,30.12,NNW,338,0.0,0.0,44,0.00,,,0.00,WUHU216HW,2013-02-24 23:04:00,
2013-02-24 18:09:00,47.4,26.4,30.12,NNW,338,0.0,0.0,44,0.00,,,0.00,WUHU216HW,2013-02-24 23:09:00,
2013-02-24 18:14:00,47.1,26.1,30.12,NNW,338,0.0,0.0,44,0.00,,,0.00,WUHU216HW,2013-02-24 23:14:00,
2013-02-24 18:19:00,46.9,26.5,30.12,NNW,338,0.0,0.0,45,0.00,,,0.00,WUHU216HW,2013-02-24 23:19:00,
2013-02-24 18:24:00,46.5,26.7,30.13,NNW,338,0.0,0.0,46,0.00,,,0.00,WUHU216HW,2013-02-24 23:24:00,
2013-02-24 18:29:00,46.2,26.4,30.13,NNE,23,0.0,0.0,46,0.00,,,0.00,WUHU216HW,2013-02-24 23:29:00,
2013-02-24 18:34:00,46.0,26.8,30.13,NNE,23,0.0,0.0,47,0.00,,,0.00,WUHU216HW,2013-02-24 23:34:00,
2013-02-24 18:39:00,45.6,26.4,30.14,NNE,23,0.0,0.0,47,0.00,,,0.00,WUHU216HW,2013-02-24 23:39:00,
2013-02-24 18:44:00,45.3,26.7,30.13,NE,45,0.0,0.0,48,0.00,,,0.00,WUHU216HW,2013-02-24 23:44:00,
2013-02-24 18:49:00,44.9,26.3,30.14,NE,45,0.0,0.0,48,0.00,,,0.00,WUHU216HW,2013-02-24 23:49:00,
2013-02-24 18:54:00,44.4,26.4,30.14,NE,45,0.0,0.0,49,0.00,,,0.00,WUHU216HW,2013-02-24 23:54:00,
2013-02-24 18:59:00,44.4,26.4,30.15,NW,315,0.0,0.0,49,0.00,,,0.00,WUHU216HW,2013-02-24 23:59:00,
2013-02-24 19:04:00,43.8,26.4,30.15,NW,315,0.0,0.0,50,0.00,,,0.00,WUHU216HW,2013-02-25 00:04:00,
2013-02-24 19:09:00,43.7,26.3,30.15,NW,315,0.0,0.0,50,0.00,,,0.00,WUHU216HW,2013-02-25 00:09:00,
2013-02-24 19:14:00,43.3,26.0,30.15,NW,315,0.0,0.0,51,0.00,,,0.00,WUHU216HW,2013-02-25 00:14:00,
2013-02-24 19:19:00,42.9,26.1,30.16,NW,315,0.0,0.0,51,0.00,,,0.00,WUHU216HW,2013-02-25 00:19:00,
2013-02-24 19:24:00,42.6,25.7,30.16,NW,315,0.0,0.0,51,0.00,,,0.00,WUHU216HW,2013-02-25 00:24:00,
2013-02-24 19:29:00,42.4,25.5,30.16,NW,315,0.0,0.0,51,0.00,,,0.00,WUHU216HW,2013-02-25 00:29:00,
2013-02-24 19:34:00,42.0,25.6,30.16,NW,315,0.0,0.0,52,0.00,,,0.00,WUHU216HW,2013-02-25 00:34:00,
2013-02-24 19:39:00,41.9,25.5,30.17,NW,315,0.0,0.0,52,0.00,,,0.00,WUHU216HW,2013-02-25 00:39:00,
2013-02-24 19:44:00,41.7,25.7,30.17,NW,315,0.0,0.0,53,0.00,,,0.00,WUHU216HW,2013-02-25 00:44:00,
2013-02-24 19:49:00,41.5,25.5,30.17,NW,315,0.0,0.0,53,0.00,,,0.00,WUHU216HW,2013-02-25 00:49:00,
2013-02-24 19:54:00,41.1,25.2,30.17,NW,315,0.0,0.0,53,0.00,,,0.00,WUHU216HW,2013-02-25 00:54:00,
2013-02-24 19:59:00,41.0,25.5,30.17,NW,315,0.0,0.0,54,0.00,,,0.00,WUHU216HW,2013-02-25 00:59:00,
2013-02-24 20:04:00,40.6,25.1,30.17,NW,315,0.0,0.0,54,0.00,,,0.00,WUHU216HW,2013-02-25 01:04:00,
2013-02-24 20:09:00,40.4,24.9,30.17,NW,315,0.0,0.0,54,0.00,,,0.00,WUHU216HW,2013-02-25 01:09:00,
2013-02-24 20:14:00,40.1,24.9,30.17,NW,315,0.0,0.0,55,0.00,,,0.00,WUHU216HW,2013-02-25 01:14:00,
2013-02-24 20:19:00,39.9,24.9,30.17,NW,315,0.0,0.0,55,0.00,,,0.00,WUHU216HW,2013-02-25 01:19:00,
2013-02-24 20:24:00,39.7,24.7,30.17,NW,315,0.0,0.0,55,0.00,,,0.00,WUHU216HW,2013-02-25 01:24:00,
2013-02-24 20:29:00,39.3,24.4,30.17,NW,315,0.0,0.0,55,0.00,,,0.00,WUHU216HW,2013-02-25 01:29:00,
2013-02-24 20:34:00,39.0,24.0,30.18,NW,315,0.0,0.0,55,0.00,,,0.00,WUHU216HW,2013-02-25 01:34:00,
2013-02-24 20:39:00,39.0,24.5,30.18,NW,315,0.0,0.0,56,0.00,,,0.00,WUHU216HW,2013-02-25 01:39:00,
2013-02-24 20:44:00,38.8,24.3,30.18,NW,315,0.0,0.0,56,0.00,,,0.00,WUHU216HW,2013-02-25 01:44:00,
2013-02-24 20:49:00,38.4,24.0,30.17,NW,315,0.0,0.0,56,0.00,,,0.00,WUHU216HW,2013-02-25 01:49:00,
2013-02-24 20:54:00,38.3,23.8,30.17,NW,315,0.0,0.0,56,0.00,,,0.00,WUHU216HW,2013-02-25 01:54:00,
2013-02-24 20:59:00,37.9,23.7,30.17,NW,315,0.0,0.0,56,0.00,,,0.00,WUHU216HW,2013-02-25 01:59:00,
2013-02-24 21:04:00,37.7,23.8,30.17,NW,315,0.0,0.0,57,0.00,,,0.00,WUHU216HW,2013-02-25 02:04:00,
2013-02-24 21:09:00,37.5,23.6,30.17,NW,315,0.0,0.0,57,0.00,,,0.00,WUHU216HW,2013-02-25 02:09:00,
2013-02-24 21:14:00,37.2,23.7,30.17,NW,315,0.0,0.0,58,0.00,,,0.00,WUHU216HW,2013-02-25 02:14:00,
2013-02-24 21:19:00,37.2,23.7,30.18,NW,315,0.0,0.0,58,0.00,,,0.00,WUHU216HW,2013-02-25 02:19:00,
2013-02-24 21:25:00,36.8,23.4,30.18,NW,315,0.0,0.0,58,0.00,,,0.00,WUHU216HW,2013-02-25 02:25:00,
2013-02-24 21:30:00,36.5,23.1,30.18,NW,315,0.0,0.0,58,0.00,,,0.00,WUHU216HW,2013-02-25 02:30:00,
2013-02-24 21:35:00,36.3,22.9,30.18,NW,315,0.0,0.0,58,0.00,,,0.00,WUHU216HW,2013-02-25 02:35:00,
2013-02-24 21:40:00,36.1,22.8,30.19,NW,315,0.0,0.0,58,0.00,,,0.00,WUHU216HW,2013-02-25 02:40:00,
2013-02-24 21:45:00,35.7,22.9,30.18,NW,315,0.0,0.0,59,0.00,,,0.00,WUHU216HW,2013-02-25 02:45:00,
2013-02-24 21:50:00,35.4,22.5,30.18,NW,315,0.0,0.0,59,0.00,,,0.00,WUHU216HW,2013-02-25 02:50:00,
2013-02-24 21:55:00,35.4,23.0,30.17,NW,315,0.0,0.0,60,0.00,,,0.00,WUHU216HW,2013-02-25 02:55:00,
2013-02-24 22:00:00,35.2,22.8,30.17,NW,315,0.0,0.0,60,0.00,,,0.00,WUHU216HW,2013-02-25 03:00:00,
2013-02-24 22:05:00,34.8,22.4,30.17,NW,315,0.0,0.0,60,0.00,,,0.00,WUHU216HW,2013-02-25 03:05:00,
2013-02-24 22:10:00,34.7,22.2,30.17,NW,315,0.0,0.0,60,0.00,,,0.00,WUHU216HW,2013-02-25 03:10:00,
2013-02-24 22:15:00,34.3,22.2,30.17,NW,315,0.0,0.0,61,0.00,,,0.00,WUHU216HW,2013-02-25 03:15:00,
2013-02-24 22:20:00,34.3,22.6,30.17,NW,315,0.0,0.0,62,0.00,,,0.00,WUHU216HW,2013-02-25 03:20:00,
2013-02-24 22:25:00,33.9,22.2,30.17,NW,315,0.0,0.0,62,0.00,,,0.00,WUHU216HW,2013-02-25 03:25:00,
2013-02-24 22:30:00,33.6,21.9,30.17,NW,315,0.0,0.0,62,0.00,,,0.00,WUHU216HW,2013-02-25 03:30:00,
2013-02-24 22:35:00,33.6,21.9,30.17,NW,315,0.0,0.0,62,0.00,,,0.00,WUHU216HW,2013-02-25 03:35:00,
2013-02-24 22:40:00,33.4,22.1,30.17,NW,315,0.0,0.0,63,0.00,,,0.00,WUHU216HW,2013-02-25 03:40:00,
2013-02-24 22:45:00,33.0,21.8,30.17,NW,315,0.0,0.0,63,0.00,,,0.00,WUHU216HW,2013-02-25 03:45:00,
2013-02-24 22:50:00,32.9,21.6,30.17,NW,315,0.0,0.0,63,0.00,,,0.00,WUHU216HW,2013-02-25 03:50:00,
2013-02-24 22:55:00,32.7,21.4,30.17,NW,315,0.0,0.0,63,0.00,,,0.00,WUHU216HW,2013-02-25 03:55:00,
2013-02-24 23:00:00,32.3,21.5,30.17,NW,315,0.0,0.0,64,0.00,,,0.00,WUHU216HW,2013-02-25 04:00:00,
2013-02-24 23:05:00,32.1,21.7,30.17,NW,315,0.0,0.0,65,0.00,,,0.00,WUHU216HW,2013-02-25 04:05:00,
2013-02-24 23:10:00,32.1,21.7,30.17,NW,315,0.0,0.0,65,0.00,,,0.00,WUHU216HW,2013-02-25 04:10:00,
2013-02-24 23:15:00,31.8,21.3,30.16,NW,315,0.0,0.0,65,0.00,,,0.00,WUHU216HW,2013-02-25 04:15:00,
2013-02-24 23:20:00,31.6,21.2,30.17,NW,315,0.0,0.0,65,0.00,,,0.00,WUHU216HW,2013-02-25 04:20:00,
2013-02-24 23:25:00,31.4,21.0,30.17,NW,315,0.0,0.0,65,0.00,,,0.00,WUHU216HW,2013-02-25 04:25:00,
2013-02-24 23:30:00,31.2,20.8,30.16,NW,315,0.0,0.0,65,0.00,,,0.00,WUHU216HW,2013-02-25 04:30:00,
2013-02-24 23:35:00,31.1,21.0,30.16,NW,315,0.0,0.0,66,0.00,,,0.00,WUHU216HW,2013-02-25 04:35:00,
2013-02-24 23:40:00,30.9,20.8,30.16,NW,315,0.0,0.0,66,0.00,,,0.00,WUHU216HW,2013-02-25 04:40:00,
2013-02-24 23:45:00,30.7,21.0,30.16,NW,315,0.0,0.0,67,0.00,,,0.00,WUHU216HW,2013-02-25 04:45:00,
2013-02-24 23:50:00,30.7,20.6,30.16,NW,315,0.0,0.0,66,0.00,,,0.00,WUHU216HW,2013-02-25 04:50:00,
2013-02-24 23:55:00,30.5,20.8,30.16,NW,315,0.0,0.0,67,0.00,,,0.00,WUHU216HW,2013-02-25 04:55:00,